Location: Aufkirchen
(47.9603°N, 11.3653°E)
Time: 16:46:42
(UTC+01:00)

Transit 4A - Pass Details

Date: 27 November 2020
Orbit: 864 x 980 km, 66.8° (Epoch: 26 January)

Event Time Altitude Azimuth Distance (km) Brightness Sun altitude
Rises 17:31:27 0° 323° (NW) 3,685 11.3 -10.7°
Reaches altitude 10° 17:34:04 10° 320° (NW) 2,726 10.6 -11.1°
Maximum altitude 17:40:19 60° 242° (WSW) 1,092 8.6 -12.1°
Drops below altitude 10° 17:46:23 10° 164° (SSE) 2,647 10.3 -13.1°
Sets 17:48:54 0° 161° (SSE) 3,570 10.9 -13.5°
